TimeMDT,TemperatureF,Dew PointF,Humidity,Sea Level PressureIn,VisibilityMPH,Wind Direction,Wind SpeedMPH,Gust SpeedMPH,PrecipitationIn,Events,Conditions,WindDirDegrees,DateUTC
12:15 AM,58.6,56.3,92,30.47,10.0,ENE,5.8,-,N/A,,Mostly Cloudy,60,2013-08-23 06:15:00
12:35 AM,59.0,56.3,91,30.47,10.0,SE,8.1,-,N/A,,Mostly Cloudy,130,2013-08-23 06:35:00
12:55 AM,58.3,56.3,93,30.47,10.0,SE,8.1,-,N/A,,Scattered Clouds,140,2013-08-23 06:55:00
1:15 AM,58.6,56.1,91,30.48,10.0,SSE,4.6,-,N/A,,Scattered Clouds,150,2013-08-23 07:15:00
1:35 AM,59.4,55.8,88,30.47,10.0,Calm,Calm,-,N/A,,Overcast,0,2013-08-23 07:35:00
1:55 AM,59.0,56.5,91,30.48,10.0,Calm,Calm,-,N/A,,Mostly Cloudy,0,2013-08-23 07:55:00
2:15 AM,59.0,56.8,93,30.47,10.0,Calm,Calm,-,N/A,,Overcast,0,2013-08-23 08:15:00
2:35 AM,58.8,56.7,93,30.46,10.0,Calm,Calm,-,N/A,,Mostly Cloudy,0,2013-08-23 08:35:00
2:55 AM,59.0,57.2,94,30.46,10.0,West,3.5,-,N/A,,Overcast,280,2013-08-23 08:55:00
3:15 AM,59.0,56.3,91,30.46,10.0,Calm,Calm,-,N/A,,Overcast,0,2013-08-23 09:15:00
3:35 AM,58.8,56.7,93,30.47,10.0,SSW,3.5,-,N/A,,Overcast,210,2013-08-23 09:35:00
3:55 AM,58.5,56.5,93,30.44,10.0,Calm,Calm,-,N/A,,Mostly Cloudy,0,2013-08-23 09:55:00
4:15 AM,58.1,56.5,94,30.44,10.0,WNW,3.5,-,N/A,,Mostly Cloudy,290,2013-08-23 10:15:00
4:35 AM,58.3,56.3,93,30.43,10.0,WNW,4.6,-,N/A,,Scattered Clouds,290,2013-08-23 10:35:00
4:55 AM,58.5,55.6,90,30.42,10.0,North,3.5,-,N/A,,Clear,360,2013-08-23 10:55:00
5:15 AM,56.8,55.0,94,30.42,10.0,Calm,Calm,-,N/A,,Clear,0,2013-08-23 11:15:00
5:35 AM,56.3,54.5,94,30.41,10.0,Calm,Calm,-,N/A,,Clear,0,2013-08-23 11:35:00
5:55 AM,55.4,53.4,93,30.42,10.0,West,4.6,-,N/A,,Clear,270,2013-08-23 11:55:00
6:15 AM,55.4,53.6,94,30.41,10.0,West,5.8,-,N/A,,Clear,260,2013-08-23 12:15:00
6:35 AM,55.8,53.4,92,30.41,10.0,West,3.5,-,N/A,,Clear,260,2013-08-23 12:35:00
6:55 AM,54.5,52.3,92,30.41,10.0,West,5.8,-,N/A,,Clear,270,2013-08-23 12:55:00
7:15 AM,54.9,52.5,92,30.41,10.0,West,3.5,-,N/A,,Clear,280,2013-08-23 13:15:00
7:35 AM,56.8,53.6,89,30.42,10.0,NW,3.5,-,N/A,,Clear,320,2013-08-23 13:35:00
7:55 AM,57.2,53.8,88,30.42,10.0,NW,4.6,-,N/A,,Clear,320,2013-08-23 13:55:00
8:15 AM,58.1,54.5,88,30.42,10.0,NNW,5.8,-,N/A,,Clear,330,2013-08-23 14:15:00
8:35 AM,59.4,53.1,80,30.42,10.0,NNW,9.2,-,N/A,,Clear,330,2013-08-23 14:35:00
8:55 AM,59.9,53.4,79,30.42,10.0,NNW,6.9,-,N/A,,Clear,340,2013-08-23 14:55:00
9:15 AM,61.7,53.8,75,30.42,10.0,NNW,5.8,-,N/A,,Clear,340,2013-08-23 15:15:00
9:35 AM,63.7,54.1,71,30.41,10.0,NW,5.8,-,N/A,,Clear,320,2013-08-23 15:35:00
9:55 AM,65.5,52.7,63,30.41,10.0,North,4.6,-,N/A,,Clear,350,2013-08-23 15:55:00
10:15 AM,67.3,52.9,60,30.40,10.0,NNE,5.8,-,N/A,,Clear,20,2013-08-23 16:15:00
10:35 AM,69.3,53.1,56,30.40,10.0,North,3.5,-,N/A,,Clear,10,2013-08-23 16:35:00
10:55 AM,70.9,52.7,53,30.39,10.0,Calm,Calm,-,N/A,,Clear,0,2013-08-23 16:55:00
11:15 AM,72.1,53.1,51,30.38,10.0,ESE,4.6,-,N/A,,Clear,110,2013-08-23 17:15:00
11:35 AM,74.3,50.4,43,30.37,10.0,NNE,3.5,-,N/A,,Clear,20,2013-08-23 17:35:00
11:55 AM,76.1,51.8,43,30.37,10.0,SSE,3.5,-,N/A,,Clear,160,2013-08-23 17:55:00
12:15 PM,78.1,47.8,34,30.35,10.0,South,12.7,16.1,N/A,,Clear,180,2013-08-23 18:15:00
12:35 PM,78.8,46.8,32,30.35,10.0,South,15.0,20.7,N/A,,Clear,180,2013-08-23 18:35:00
12:55 PM,79.3,45.9,31,30.34,10.0,South,11.5,20.7,N/A,,Clear,180,2013-08-23 18:55:00
1:15 PM,80.6,45.3,29,30.33,10.0,South,13.8,20.7,N/A,,Clear,180,2013-08-23 19:15:00
1:35 PM,80.6,43.7,27,30.32,10.0,South,16.1,21.9,N/A,,Clear,180,2013-08-23 19:35:00
1:55 PM,81.3,43.9,27,30.30,10.0,South,9.2,20.7,N/A,,Clear,170,2013-08-23 19:55:00
2:15 PM,82.4,43.0,25,30.30,10.0,SSW,11.5,20.7,N/A,,Clear,200,2013-08-23 20:15:00
2:35 PM,82.4,43.0,25,30.29,10.0,South,12.7,21.9,N/A,,Clear,190,2013-08-23 20:35:00
2:55 PM,82.8,40.3,22,30.29,10.0,SSE,10.4,20.7,N/A,,Clear,160,2013-08-23 20:55:00
3:15 PM,83.7,40.8,22,30.29,10.0,SSW,10.4,17.3,N/A,,Clear,200,2013-08-23 21:15:00
3:35 PM,79.9,42.8,27,30.27,10.0,West,16.1,-,N/A,,Scattered Clouds,260,2013-08-23 21:35:00
3:55 PM,79.0,43.5,28,30.27,10.0,WNW,10.4,19.6,N/A,,Clear,290,2013-08-23 21:55:00
4:15 PM,80.6,41.7,25,30.26,10.0,West,8.1,-,N/A,,Clear,280,2013-08-23 22:15:00
4:35 PM,82.2,38.8,21,30.26,10.0,NNW,11.5,20.7,N/A,,Scattered Clouds,330,2013-08-23 22:35:00
4:55 PM,79.2,41.7,26,30.26,10.0,NNW,11.5,-,N/A,,Overcast,330,2013-08-23 22:55:00
5:15 PM,78.4,41.4,27,30.26,10.0,NW,12.7,18.4,N/A,,Scattered Clouds,320,2013-08-23 23:15:00
5:35 PM,78.6,40.5,26,30.25,10.0,North,11.5,17.3,N/A,,Clear,350,2013-08-23 23:35:00
5:55 PM,78.1,40.5,26,30.25,10.0,NNW,6.9,-,N/A,,Clear,330,2013-08-23 23:55:00
6:35 PM,78.3,41.2,27,30.24,10.0,NNW,3.5,-,N/A,,Clear,330,2013-08-24 00:35:00
6:55 PM,77.7,40.8,27,30.23,10.0,NNW,3.5,-,N/A,,Clear,340,2013-08-24 00:55:00
7:15 PM,75.2,43.2,32,30.24,10.0,NNW,3.5,-,N/A,,Clear,340,2013-08-24 01:15:00
7:35 PM,74.8,39.7,28,30.24,10.0,Calm,Calm,-,N/A,,Clear,0,2013-08-24 01:35:00
7:55 PM,71.4,37.9,30,30.25,10.0,Calm,Calm,-,N/A,,Clear,0,2013-08-24 01:55:00
8:15 PM,72.0,35.8,27,30.25,10.0,Calm,Calm,-,N/A,,Clear,0,2013-08-24 02:15:00
8:35 PM,71.8,41.9,34,30.27,10.0,Calm,Calm,-,N/A,,Clear,0,2013-08-24 02:35:00
8:55 PM,67.5,41.4,39,30.27,10.0,WSW,5.8,-,N/A,,Clear,250,2013-08-24 02:55:00
9:15 PM,64.6,43.5,46,30.28,10.0,West,5.8,-,N/A,,Mostly Cloudy,280,2013-08-24 03:15:00
9:35 PM,64.2,43.2,46,30.28,10.0,West,6.9,-,N/A,,Mostly Cloudy,260,2013-08-24 03:35:00
9:55 PM,62.6,43.2,49,30.29,10.0,West,4.6,-,N/A,,Scattered Clouds,270,2013-08-24 03:55:00
10:15 PM,63.9,40.1,42,30.29,10.0,West,11.5,-,N/A,,Scattered Clouds,260,2013-08-24 04:15:00
10:35 PM,64.8,37.9,37,30.29,10.0,NNW,8.1,-,N/A,,Clear,330,2013-08-24 04:35:00
10:55 PM,66.0,40.8,40,30.29,10.0,West,3.5,-,N/A,,Clear,280,2013-08-24 04:55:00
11:15 PM,64.9,42.8,45,30.29,10.0,WNW,5.8,-,N/A,,Clear,300,2013-08-24 05:15:00
11:35 PM,63.9,43.9,48,30.29,10.0,Calm,Calm,-,N/A,,Clear,0,2013-08-24 05:35:00
11:55 PM,61.0,44.4,54,30.31,10.0,Calm,Calm,-,N/A,,Clear,0,2013-08-24 05:55:00